Seattle Boeing, WA

6:21 PM PDT on July 22, 2017 (GMT -0700)
Boeing Field-King County International

Weather History for KBFI - January, 2013

Change the Weather History Date:

Saturday, January 26, 2013

  Actual Average Record
Temperature  
Mean Temperature 44 °F -  
Max Temperature 48 °F 44 °F 64 °F (2015)
Min Temperature 41 °F 33 °F 1 °F (2011)
Degree Days  
Heating Degree Days 20    
Moisture  
Dew Point 37 °F    
Average Humidity 78    
Maximum Humidity 89    
Minimum Humidity 63    
Precipitation  
Precipitation 0.16 in - - ()
Sea Level Pressure  
Sea Level Pressure 29.94 in    
Wind  
Wind Speed 8 mph (South)    
Max Wind Speed 14 mph    
Max Gust Speed 22 mph    
Visibility 9 miles    
Events Rain    
Averages and records for this station are not official NWS values.
T = Trace of Precipitation, MM = Missing Value Source: NWS Daily Summary

Daily Weather History Graph

Daily Weather History Graph

Search for Another Location

Airport or City:

Trip Planner

Search our weather history database for the weather conditions in past years. The results will help you decide how hot, cold, wet, or windy it might be!

Date:

Astronomy

Jan. 26, 2013 Rise Set
Actual Time 7:42 AM PST 5:01 PM PST
Civil Twilight 7:08 AM PST 5:35 PM PST
Nautical Twilight 6:31 AM PST 6:12 PM PST
Astronomical Twilight 5:55 AM PST 6:49 PM PST
Moon 5:06 PM PST (1/26) 7:00 AM PST (1/26)
Length of Visible Light 10h 26m
Length of Day
9h 19m
Full, 100% of the Moon is Illuminated
Jan 26
Full
Jan 26
Full
Feb 3
Last Quarter
Feb 9
New
Feb 17
First Quarter

Hourly Weather History & Observations

Time (PST) Temp. Windchill Dew Point Humidity Pressure Visibility Wind Dir Wind Speed Gust Speed Precip Events Conditions
12:53 AM 42.1 °F 36.6 °F 39.0 °F 89% 29.92 in 10.0 mi SE 9.2 mph - N/A   Overcast
1:53 AM 41.0 °F 35.2 °F 37.9 °F 89% 29.91 in 10.0 mi SE 9.2 mph - N/A   Clear
2:53 AM 41.0 °F 37.1 °F 37.9 °F 89% 29.91 in 10.0 mi SE 5.8 mph - N/A   Overcast
3:53 AM 41.0 °F 37.1 °F 37.0 °F 86% 29.90 in 10.0 mi SE 5.8 mph - N/A   Overcast
4:53 AM 41.0 °F 36.4 °F 37.0 °F 86% 29.90 in 7.0 mi SE 6.9 mph - 0.04 in Rain Light Rain
5:51 AM 41.0 °F 36.4 °F 37.4 °F 87% 29.90 in 5.0 mi South 6.9 mph - 0.03 in Rain Light Rain
5:53 AM 41.0 °F 37.1 °F 37.9 °F 89% 29.90 in 5.0 mi SSE 5.8 mph - 0.03 in Rain Light Rain
6:27 AM 42.8 °F 39.3 °F 37.4 °F 81% 29.89 in 10.0 mi SE 5.8 mph - 0.02 in   Overcast
6:53 AM 41.0 °F 37.1 °F 37.9 °F 89% 29.89 in 8.0 mi SE 5.8 mph - 0.02 in   Overcast
7:29 AM 42.8 °F 38.6 °F 37.4 °F 81% 29.90 in 10.0 mi SSE 6.9 mph - 0.01 in Rain Light Rain
7:53 AM 41.0 °F 37.1 °F 37.0 °F 86% 29.90 in 10.0 mi SE 5.8 mph - 0.01 in Rain Light Rain
8:53 AM 43.0 °F 38.8 °F 37.9 °F 82% 29.91 in 5.0 mi South 6.9 mph - 0.04 in Rain Light Rain
8:56 AM 42.8 °F 38.6 °F 39.2 °F 87% 29.91 in 6.0 mi South 6.9 mph - 0.00 in Rain Light Rain
9:50 AM 44.6 °F 40.2 °F 39.2 °F 81% 29.93 in 10.0 mi South 8.1 mph - 0.00 in   Overcast
9:53 AM 45.0 °F 41.8 °F 39.0 °F 80% 29.93 in 10.0 mi South 5.8 mph - 0.00 in   Overcast
10:53 AM 46.0 °F 39.9 °F 37.9 °F 73% 29.94 in 10.0 mi South 13.8 mph 19.6 mph N/A   Overcast
11:16 AM 46.4 °F 41.1 °F 37.4 °F 71% 29.94 in 10.0 mi South 11.5 mph 20.7 mph N/A   Overcast
11:53 AM 48.9 °F - 37.9 °F 66% 29.93 in 10.0 mi South 9.2 mph 20.7 mph N/A   Overcast
12:53 PM 48.0 °F - 36.0 °F 63% 29.93 in 10.0 mi SSW 10.4 mph 21.9 mph N/A   Overcast
1:53 PM 48.0 °F - 37.9 °F 68% 29.93 in 10.0 mi SSW 11.5 mph - N/A   Overcast
2:25 PM 46.4 °F 41.9 °F 37.4 °F 71% 29.93 in 10.0 mi SSW 9.2 mph 16.1 mph N/A   Overcast
2:53 PM 48.0 °F - 37.0 °F 66% 29.93 in 10.0 mi SSW 6.9 mph - N/A   Overcast
3:53 PM 46.9 °F - 37.0 °F 68% 29.94 in 10.0 mi South 8.1 mph - 0.00 in   Overcast
4:53 PM 46.0 °F 42.5 °F 37.0 °F 71% 29.95 in 10.0 mi South 6.9 mph - 0.01 in Rain Light Rain
5:53 PM 46.0 °F 43.1 °F 37.0 °F 71% 29.97 in 10.0 mi Variable 5.8 mph - 0.01 in Rain Light Rain
6:53 PM 45.0 °F 43.5 °F 37.0 °F 74% 29.98 in 10.0 mi South 3.5 mph - 0.00 in   Overcast
7:53 PM 45.0 °F 41.2 °F 37.0 °F 74% 30.00 in 10.0 mi South 6.9 mph - N/A   Overcast
8:53 PM 44.1 °F 39.5 °F 37.0 °F 76% 30.01 in 10.0 mi SSE 8.1 mph - N/A   Overcast
9:53 PM 44.1 °F 40.8 °F 37.0 °F 76% 30.01 in 10.0 mi SW 5.8 mph - N/A   Overcast
10:53 PM 43.0 °F 39.5 °F 36.0 °F 76% 30.04 in 10.0 mi SSW 5.8 mph - N/A   Overcast
11:53 PM 43.0 °F 40.3 °F 36.0 °F 76% 30.04 in 10.0 mi WSW 4.6 mph - N/A   Overcast